Find Kosmos-574

NORAD ID: 6707 Int'l Des: 1973-042 Owner: VMF Country: SU operational
LEOCIRCULARPOLAR

現在のビュー

3D地球を読み込み中...

About Kosmos-574

Kosmos-574 (NORAD 6707) is a satellite by VMF of SU. It operates in LEO, CIRCULAR, POLAR orbit

次回通過

Passes for default location (London). Set your location on the main map for personalized predictions.

高度履歴

Loading altitude history...

軌道要素

1 06707U 73042A 26195.45930451 .00000029 00000-0 14853-4 0 9996
2 06707 82.9500 173.6305 0021505 168.2886 306.1496 13.72424081 94412
Epoch: Jul 14, 2026 • Age: 8 hours

現在のステータス

高度 1006.6 km
遠地点 / 近地点 N/A
速度 7.34 km/s
衛星直下点 21.19°N, 46.36°W
タイプ other

Most Searched